Wind_Speed
27 27 27 27 27 27 28 28 29 28 28 28 28 28 27 27 26 24 25 25 25 25 24 24 24 23 22 22 21 21 21 21 20 20 20 20 21 21 22 22 22 22 22
29 29 29 29 29 30 30 31 31 31 30 30 31 30 30 29 28 26 26 26 26 25 25 25 25 25 24 23 22 22 22 22 22 21 21 21 21 21 21 22 22 22 23
32 32 32 32 32 33 33 33 34 34 33 33 34 33 33 32 31 29 27 27 28 27 27 26 27 26 26 25 24 24 24 23 23 23 23 23 22 22 22 23 23 23 24
35 35 35 35 36 37 37 37 37 37 37 37 37 37 36 35 34 33 31 29 29 29 29 28 28 28 27 27 26 26 26 25 25 25 25 25 24 24 24 24 25 25 25
37 38 38 38 39 39 40 40 40 41 41 40 40 40 39 38 37 36 35 33 31 31 31 31 30 30 30 29 28 28 28 28 28 27 27 27 27 27 27 27 27 27 28
40 41 41 42 42 43 43 43 44 44 44 44 44 44 43 42 41 40 38 37 35 34 33 33 33 32 32 32 31 30 30 30 30 30 30 30 30 30 31 31 31 31 31
43 44 44 45 45 46 46 47 47 48 48 49 49 48 47 47 45 43 42 41 39 38 37 36 35 35 34 34 33 33 33 33 33 33 34 34 34 34 35 35 35 35 35
46 47 47 47 48 49 49 50 50 51 52 52 53 53 52 51 49 48 47 45 44 42 40 39 38 38 37 37 36 36 36 36 36 37 37 37 38 38 38 39 39 39 39
47 48 49 50 51 52 52 53 54 54 55 55 56 57 56 54 53 52 50 49 48 46 44 44 43 42 41 40 40 40 40 40 40 40 40 41 41 41 42 42 43 43 43
48 49 51 52 53 54 55 56 57 58 58 59 59 59 58 58 58 55 53 52 51 50 49 48 47 46 45 45 44 44 43 43 43 43 44 45 45 45 45 46 46 47 47
48 49 51 52 54 55 57 58 60 61 62 62 62 61 61 61 60 59 57 55 54 53 52 51 50 49 49 48 48 47 47 46 46 47 48 48 48 48 48 49 49 50 51
47 49 50 52 53 56 58 60 62 63 64 64 64 64 64 63 62 61 60 58 57 56 55 54 53 52 51 51 49 49 49 49 49 50 50 51 51 51 51 52 53 53 54
46 48 49 51 53 56 58 60 62 63 65 65 66 65 65 64 63 62 62 61 60 58 57 56 54 55 54 53 52 52 52 53 53 53 53 52 52 54 55 55 56 56 56
44 46 48 50 52 54 56 59 60 62 64 65 65 65 64 63 62 61 61 61 60 59 58 57 56 56 54 54 55 54 54 55 56 57 58 57 58 59 59 58 59 60 60
43 45 47 49 51 53 55 57 58 59 60 61 62 61 61 60 59 59 59 59 59 58 58 57 57 58 58 58 58 58 57 57 59 59 60 61 61 61 61 60 61 61 62
42 44 46 48 50 52 54 54 55 55 55 55 55 55 56 56 55 55 57 57 57 57 57 57 58 59 59 59 60 60 60 61 62 63 63 62 63 63 63 62 63 63 63
41 43 46 47 48 49 49 50 50 49 49 49 49 50 50 50 49 50 52 53 55 56 56 58 59 60 61 61 62 63 63 63 64 65 65 64 64 63 64 65 65 65 66
40 42 43 44 44 44 45 45 44 43 43 42 42 42 43 44 45 45 47 48 51 53 54 56 56 58 59 61 62 63 63 64 65 65 65 65 65 65 65 66 66 67 68
37 37 39 40 40 40 40 40 39 37 37 36 37 37 37 38 40 41 43 45 47 50 51 53 54 56 58 59 60 61 61 62 63 64 65 65 65 65 66 66 67 68 69
34 34 36 36 35 35 35 35 33 32 30 29 29 31 32 33 33 35 38 41 43 46 48 50 51 52 53 54 56 58 59 61 62 62 64 65 66 66 67 68 69 69 70
31 32 32 33 32 32 32 31 29 28 27 25 24 25 26 27 28 29 32 35 37 40 43 45 47 48 50 52 53 55 57 59 60 62 63 65 66 67 68 69 69 70 70
29 30 30 30 29 29 29 28 26 24 22 21 20 20 20 22 24 25 26 29 31 35 37 40 43 46 48 50 52 55 57 59 61 62 63 65 65 66 67 67 66 66 65
27 27 27 27 27 26 26 25 23 22 21 20 20 19 18 19 22 23 25 28 31 34 36 39 41 44 47 49 52 54 56 59 60 61 61 62 62 61 60 60 59 58 57
25 25 25 25 25 25 24 23 22 21 20 19 18 18 18 20 21 23 26 28 31 33 36 39 41 44 47 50 53 55 57 59 60 60 58 56 55 54 53 53 52 52 51
23 23 24 24 23 23 22 21 21 20 19 19 19 19 20 22 24 25 27 30 32 35 38 41 44 47 50 52 54 56 56 56 55 55 53 51 49 47 47 48 48 47 45
22 23 23 23 23 23 22 22 22 21 21 22 23 24 25 26 28 29 31 34 36 39 41 44 47 50 52 54 55 54 53 52 51 50 49 46 45 44 41 42 44 43 42
Wind_Direction
293 293 293 293 292 291 290 289 289 290 290 291 290 290 289 289 288 286 286 287 288 288 289 290 290 292 293 294 294 295 296 298 298 298 297 296 294 292 289 287 285 283 281
291 291 291 291 291 290 289 289 289 290 290 290 289 289 288 287 286 285 284 285 285 285 286 287 288 288 289 290 291 292 293 294 295 295 295 294 293 292 290 288 287 285 281
289 289 288 288 288 287 287 288 289 288 288 288 287 287 287 286 285 283 282 282 283 283 284 284 285 286 287 287 288 289 291 292 293 292 292 292 291 290 289 288 286 284 283
288 288 287 287 286 286 286 287 287 286 286 285 285 285 285 285 284 282 281 279 280 281 281 282 283 283 284 285 286 287 288 289 289 290 289 289 289 288 287 286 285 284 282
287 288 288 287 287 286 286 285 285 284 284 284 283 283 283 282 281 280 279 278 277 277 278 279 280 280 281 282 283 285 286 286 286 286 286 286 286 286 285 285 285 283 282
287 287 287 287 286 286 285 283 283 282 282 281 281 281 280 279 279 279 278 276 275 274 274 276 277 277 278 279 280 281 283 284 284 283 283 284 284 284 284 284 283 283 282
285 285 285 285 285 285 284 283 282 281 280 279 279 279 277 277 277 277 277 275 273 273 273 273 273 274 275 275 277 279 280 281 282 282 281 281 281 281 282 282 281 281 281
284 285 285 285 284 284 283 283 281 280 279 279 278 277 277 276 277 276 274 274 273 273 273 272 271 271 272 273 275 277 278 279 279 280 280 279 280 280 280 280 280 279 279
282 283 284 283 283 283 283 282 281 280 279 277 277 277 276 276 275 273 274 274 273 272 273 273 271 269 270 272 274 275 276 278 279 279 280 279 279 279 279 279 279 279 278
281 282 282 283 283 283 283 282 281 280 278 277 276 275 275 274 274 273 272 272 273 272 272 273 272 271 271 271 272 274 276 277 277 278 279 279 278 278 278 279 278 278 277
281 281 282 282 282 282 282 282 281 280 278 277 275 274 273 273 273 273 272 271 271 271 272 273 274 274 274 273 272 273 275 277 278 278 278 279 278 278 278 279 279 278 278
282 282 282 283 283 283 282 281 280 278 277 276 274 273 272 271 271 271 271 270 270 270 271 272 273 274 275 274 274 274 275 277 278 279 279 279 278 279 279 279 279 278 278
284 285 285 285 285 284 283 282 281 279 277 275 274 272 271 270 269 269 269 269 269 269 270 271 273 274 275 276 275 275 277 278 279 280 280 280 279 281 281 280 279 279 278
287 288 289 289 289 288 287 286 284 282 279 276 274 272 270 269 268 267 267 267 268 268 269 270 271 272 273 276 276 277 278 278 280 282 281 281 282 282 281 281 281 279 278
291 293 293 294 294 292 291 289 287 285 281 278 275 272 269 267 266 265 265 265 266 266 267 268 270 272 272 274 276 278 279 280 282 283 282 282 282 281 280 280 281 280 278
294 296 297 298 297 295 294 293 291 287 283 279 276 272 269 267 265 265 264 264 264 265 267 267 268 270 273 274 275 278 279 280 282 284 284 284 283 282 281 281 281 281 279
297 299 300 300 299 299 298 298 296 291 287 283 278 273 269 266 264 263 263 263 263 264 266 267 269 270 272 275 276 278 280 281 282 283 283 284 284 283 282 283 283 281 280
300 303 304 304 303 303 303 304 303 297 290 285 280 275 270 265 262 262 261 261 262 263 264 267 270 272 273 275 278 280 281 282 282 283 283 284 285 285 284 283 283 282 281
305 307 309 310 308 308 307 308 307 302 295 288 282 277 272 266 262 262 262 263 263 264 265 268 271 273 276 278 279 281 282 282 283 284 285 286 287 286 285 285 284 284 283
307 309 313 315 314 314 314 313 311 306 301 294 286 279 273 268 265 264 264 266 265 265 267 270 273 276 278 280 280 281 282 283 284 286 287 287 287 287 287 286 285 284 283
308 311 314 317 318 318 318 317 316 312 306 300 293 285 278 271 270 270 270 271 270 270 272 275 276 277 280 282 282 283 285 286 287 288 289 289 289 289 288 287 286 284 284
309 312 314 317 320 321 321 320 318 317 314 308 302 295 287 279 278 278 277 276 275 276 278 279 281 282 284 285 286 287 289 289 290 290 291 291 291 290 289 288 287 286 285
309 312 314 319 322 323 324 325 323 321 319 316 310 302 296 293 290 287 284 282 283 285 286 287 288 288 289 290 291 292 292 293 293 293 293 293 292 292 290 289 289 288 288
309 311 314 319 322 324 324 325 324 323 321 319 316 311 304 300 298 294 292 291 291 292 293 293 294 294 295 295 295 295 295 295 295 295 295 294 293 293 292 291 291 291 291
309 312 316 318 321 322 324 324 324 323 322 320 317 314 311 308 305 303 301 299 299 299 298 298 298 298 298 298 298 298 297 297 297 297 296 295 293 293 293 293 293 294 294
310 313 316 318 319 321 322 323 322 321 319 318 316 314 313 311 309 307 305 304 303 302 302 301 301 301 302 301 301 300 299 299 298 298 298 297 295 294 293 294 294 295 296
Height
5848 5847 5847 5847 5846 5845 5845 5844 5843 5842 5841 5840 5839 5838 5838 5837 5836 5836 5834 5833 5832 5831 5830 5829 5829 5828 5827 5826 5825 5824 5823 5822 5821 5820 5819 5818 5818 5817 5817 5816 5816 5816 5816
5842 5842 5841 5841 5840 5839 5839 5838 5837 5837 5836 5835 5833 5832 5832 5831 5830 5830 5829 5828 5827 5826 5825 5824 5823 5822 5821 5820 5820 5819 5818 5817 5816 5815 5814 5813 5812 5812 5811 5811 5810 5810 5810
5836 5835 5835 5834 5834 5833 5832 5831 5831 5830 5829 5828 5827 5826 5825 5824 5824 5824 5823 5822 5821 5820 5819 5818 5817 5817 5816 5815 5814 5813 5812 5811 5810 5809 5808 5807 5806 5806 5805 5805 5804 5804 5804
5829 5828 5828 5827 5826 5825 5825 5824 5823 5822 5821 5821 5820 5819 5818 5817 5816 5816 5816 5816 5815 5814 5813 5812 5811 5810 5809 5809 5808 5807 5806 5805 5804 5803 5802 5801 5800 5800 5799 5798 5798 5798 5797
5822 5821 5820 5820 5818 5817 5817 5816 5815 5813 5813 5812 5811 5811 5810 5809 5808 5808 5808 5808 5808 5807 5806 5805 5804 5803 5803 5802 5801 5800 5799 5798 5797 5796 5795 5794 5794 5793 5792 5792 5791 5791 5790
5814 5813 5812 5811 5810 5809 5808 5807 5805 5804 5803 5802 5801 5801 5801 5800 5799 5799 5799 5799 5799 5798 5798 5797 5796 5795 5794 5794 5793 5792 5791 5790 5789 5788 5787 5787 5786 5785 5785 5784 5784 5783 5783
5805 5804 5803 5802 5800 5799 5798 5797 5795 5794 5793 5791 5790 5790 5790 5789 5789 5789 5789 5788 5788 5788 5788 5788 5787 5786 5786 5785 5784 5783 5782 5782 5781 5780 5779 5778 5778 5777 5776 5776 5775 5775 5774
5795 5794 5793 5792 5790 5788 5787 5786 5784 5783 5782 5780 5779 5777 5777 5778 5779 5778 5777 5777 5777 5777 5777 5778 5777 5777 5776 5775 5775 5774 5773 5772 5771 5771 5770 5769 5768 5768 5767 5766 5766 5765 5765
5786 5784 5782 5781 5779 5777 5775 5774 5772 5770 5769 5768 5766 5765 5765 5765 5765 5765 5766 5766 5765 5766 5766 5766 5766 5766 5766 5765 5764 5763 5763 5762 5761 5760 5759 5759 5758 5757 5757 5756 5755 5755 5754
5776 5774 5772 5770 5767 5765 5763 5761 5759 5757 5755 5754 5753 5752 5751 5750 5750 5751 5753 5753 5753 5753 5754 5753 5753 5754 5754 5754 5753 5751 5750 5750 5750 5749 5748 5747 5746 5745 5745 5744 5743 5743 5742
5766 5764 5762 5759 5756 5754 5751 5748 5745 5743 5741 5739 5738 5737 5736 5735 5735 5735 5737 5739 5739 5740 5740 5740 5740 5741 5740 5741 5740 5739 5738 5737 5737 5736 5735 5734 5733 5732 5731 5731 5730 5729 5729
5756 5753 5751 5748 5745 5742 5738 5735 5731 5728 5726 5723 5722 5721 5720 5720 5721 5720 5721 5722 5724 5725 5725 5726 5727 5727 5726 5726 5726 5726 5725 5723 5723 5722 5721 5720 5719 5719 5718 5717 5716 5715 5714
5745 5742 5739 5736 5733 5729 5724 5720 5716 5713 5709 5706 5705 5704 5703 5704 5705 5704 5704 5706 5707 5710 5711 5712 5713 5713 5713 5712 5711 5711 5710 5709 5708 5707 5706 5705 5704 5703 5702 5701 5700 5699 5699
5734 5731 5727 5723 5719 5714 5709 5704 5700 5696 5692 5689 5687 5686 5685 5686 5687 5688 5689 5690 5691 5694 5696 5697 5698 5698 5698 5697 5696 5696 5695 5694 5693 5692 5690 5689 5688 5687 5686 5685 5684 5683 5682
5723 5719 5715 5710 5705 5700 5694 5688 5683 5678 5674 5671 5669 5668 5668 5669 5670 5672 5673 5674 5676 5678 5680 5682 5683 5683 5682 5682 5681 5680 5680 5679 5678 5676 5674 5672 5671 5670 5668 5667 5666 5665 5664
5711 5707 5702 5697 5691 5685 5679 5672 5667 5661 5657 5654 5652 5651 5651 5652 5654 5656 5658 5659 5661 5663 5665 5667 5667 5667 5667 5666 5666 5665 5664 5663 5661 5659 5657 5655 5653 5652 5650 5649 5647 5646 5644
5700 5695 5690 5684 5678 5671 5664 5658 5651 5646 5641 5639 5637 5636 5636 5637 5639 5641 5643 5645 5647 5649 5650 5652 5652 5652 5652 5651 5651 5650 5648 5646 5644 5641 5639 5637 5636 5634 5631 5630 5628 5626 5624
5690 5684 5678 5672 5666 5659 5652 5645 5638 5632 5628 5625 5624 5623 5623 5624 5625 5627 5629 5631 5634 5636 5637 5638 5638 5638 5637 5636 5635 5634 5632 5630 5627 5624 5622 5620 5617 5614 5612 5610 5608 5605 5603
5680 5674 5669 5662 5655 5649 5642 5635 5628 5622 5618 5615 5613 5612 5612 5613 5614 5616 5618 5620 5622 5623 5624 5625 5624 5624 5623 5622 5620 5618 5616 5613 5610 5607 5604 5601 5598 5595 5592 5589 5587 5584 5582
5671 5666 5660 5654 5647 5640 5634 5628 5621 5616 5611 5607 5605 5604 5604 5605 5606 5607 5609 5611 5611 5612 5613 5613 5612 5611 5610 5608 5606 5603 5600 5597 5594 5590 5587 5583 5579 5575 5571 5568 5565 5562 5559
5664 5658 5653 5647 5640 5634 5628 5622 5616 5611 5606 5603 5600 5599 5598 5598 5599 5600 5601 5602 5603 5603 5603 5602 5601 5599 5597 5594 5592 5589 5585 5581 5577 5573 5569 5564 5560 5555 5550 5545 5541 5538 5535
5656 5652 5647 5641 5635 5629 5623 5617 5612 5608 5603 5600 5597 5595 5594 5594 5594 5594 5594 5595 5595 5594 5594 5592 5590 5588 5585 5582 5578 5574 5570 5566 5560 5556 5552 5544 5540 5534 5528 5523 5519 5515 5512
5650 5646 5641 5635 5630 5624 5619 5614 5609 5605 5601 5598 5595 5593 5592 5591 5590 5589 5589 5588 5587 5586 5584 5582 5579 5576 5573 5569 5564 5560 5554 5549 5543 5538 5533 5526 5519 5514 5507 5502 5498 5495 5491
5644 5640 5635 5630 5625 5620 5615 5611 5606 5602 5599 5596 5593 5591 5589 5588 5586 5585 5583 5581 5580 5577 5575 5572 5568 5564 5560 5555 5550 5544 5538 5531 5524 5519 5515 5510 5502 5497 5490 5484 5480 5477 5474
5638 5634 5630 5625 5621 5616 5612 5608 5604 5600 5596 5593 5591 5588 5586 5583 5581 5579 5577 5574 5571 5568 5564 5560 5556 5551 5545 5540 5533 5527 5521 5515 5508 5501 5497 5494 5488 5483 5477 5470 5465 5461 5458
5633 5629 5625 5621 5616 5612 5608 5604 5600 5596 5593 5590 5587 5584 5581 5578 5575 5572 5569 5565 5562 5558 5553 5548 5543 5537 5530 5524 5517 5511 5504 5498 5492 5487 5481 5478 5473 5469 5466 5458 5452 5448 5444